This is the latest recevied weather packets stored in our database for station/object K8FJG-13. If no packets are shown the sender has not sent any weather packets the latest 10 day(s).
| Time | Temp. | Humidity | Pressure | Rain* | Wind** | Luminosity | Snow |
|---|---|---|---|---|---|---|---|
| 1777700554 | 2.22° C | 94% | 971.2 hPa | - | - | - | - |
| 1777699950 | 2.22° C | 94% | 971.3 hPa | - | - | - | - |
| 1777699348 | 2.22° C | 94% | 971.3 hPa | - | - | - | - |
| 1777698744 | 2.22° C | 94% | 971.4 hPa | - | - | - | - |
| 1777698141 | 2.78° C | 94% | 971.5 hPa | - | - | - | - |
| 1777697538 | 2.78° C | 94% | 971.5 hPa | - | - | - | - |
| 1777696935 | 3.33° C | 94% | 971.4 hPa | - | - | - | - |
| 1777696332 | 3.33° C | 94% | 971.4 hPa | - | - | - | - |
| 1777695729 | 3.89° C | 94% | 971.3 hPa | - | - | - | - |
| 1777695126 | 3.89° C | 94% | 971.2 hPa | - | - | - | - |
| 1777694522 | 3.89° C | 94% | 971 hPa | - | - | - | - |
| 1777693919 | 3.89° C | 94% | 970.9 hPa | - | - | - | - |
| 1777693316 | 3.33° C | 94% | 970.9 hPa | - | - | - | - |
| 1777692713 | 3.33° C | 93% | 970.8 hPa | - | - | - | - |
| 1777692110 | 3.33° C | 93% | 970.8 hPa | - | - | - | - |
| 1777691507 | 3.33° C | 93% | 970.7 hPa | - | - | - | - |
| 1777690904 | 3.33° C | 93% | 970.7 hPa | - | - | - | - |
| 1777690300 | 3.33° C | 93% | 970.7 hPa | - | - | - | - |
| 1777689697 | 3.33° C | 93% | 970.7 hPa | - | - | - | - |
| 1777689094 | 3.33° C | 93% | 970.8 hPa | - | - | - | - |
| 1777674016 | 5.56° C | 81% | 968.8 hPa | - | - | - | - |
| 1777664366 | 3.33° C | 95% | 968.1 hPa | - | - | - | - |
| 1777661350 | 3.89° C | 95% | 967.9 hPa | - | - | - | - |
| 1777660747 | 3.89° C | 95% | 967.7 hPa | - | - | - | - |
| 1777660144 | 3.89° C | 94% | 967.7 hPa | - | - | - | - |
* Rain since midnight (hover to see other rain measurements)
** Current wind speed in m/s (hover to see current wind gust speed)